Location: Unspecified
(0.0000°N, 0.0000°E)
Time: 00:29:22
(UTC+00:00)

N. Korean satellite - Pass Details

Date: 20 June 2017
Orbit: 462 x 515 km, 97.2° (Epoch: 19 August)

Event Time Altitude Azimuth Distance (km) Brightness Sun altitude
Rises 19:26:16 0° 201° (SSW) 2,633 10.3 -19.3°
Reaches altitude 10° 19:29:15 10° 228° (SW) 1,743 9.6 -20.0°
Maximum altitude 19:31:11 14° 259° (WSW) 1,522 9.8 -20.4°
Drops below altitude 10° 19:33:06 10° 290° (WNW) 1,735 10.5 -20.9°
Sets 19:36:04 0° 316° (NW) 2,612 11.5 -21.5°
